Simultaneous Nadir Overpasses (SNOs) Predictions

Prediction of SNOs between METOP-B and TERRA Satellite Orbit:

Table of predicted SNOs for the next 14.0 days since TLE Epoch: 11/9/2019
Index Date (METOP-B) Time (METOP-B) Lat,Lon (METOP-B) SZA (METOP-B ) Date (TERRA) Time (TERRA) Lat,Lon (TERRA) SZA (TERRA ) Distance(km) Time Diff (sec)
1 11/09/2019 20:40:25 -81.28, 96.63 78.70 11/09/2019 20:41:00 -81.27, 96.54 78.70 1.62 35
2 11/09/2019 21:31:05 81.28, -95.77 101.35 11/09/2019 21:30:26 81.28, -95.77 101.32 0.61 39
3 11/12/2019 16:14:49 -81.28, 163.00 77.94 11/12/2019 16:15:15 -81.27, 162.95 77.94 0.98 26
4 11/12/2019 17:05:28 81.29, -29.01 102.16 11/12/2019 17:04:40 81.29, -29.01 102.14 0.84 48
5 11/15/2019 11:49:13 -81.28,-130.65 77.22 11/15/2019 11:49:30 -81.27,-130.67 77.22 0.90 17
6 11/15/2019 12:39:52 81.29, 37.33 102.87 11/15/2019 12:38:55 81.29, 37.35 102.85 0.45 57
7 11/18/2019 07:23:35 -81.28, -63.93 76.51 11/18/2019 07:23:43 -81.28, -63.94 76.50 0.41 8
8 11/18/2019 08:14:15 81.28, 103.66 103.54 11/18/2019 08:13:09 81.28, 103.67 103.50 0.26 66
9 11/21/2019 02:07:19 81.27,-165.32 104.06 11/21/2019 02:08:31 81.27,-165.33 104.09 0.23 72
10 11/21/2019 02:57:59 -81.28, 2.38 75.89 11/21/2019 02:57:58 -81.28, 2.38 75.89 0.21 1




NCC Satellite Simultaneous Nadir Overpasses (SNOs) Prediction Service
